Terminal Aerodrome Forecast
Issued by NWS Milwaukee/Sullivan, WI

Home | Current Version | Previous Version | Text Only | Print | Product List | Glossary On
Versions: 1 2 3 4 5 6 7 8 9 10 11 12 13 14 15 16 17 18 19 20 21 22 23 24 25 26 27 28 29 30 31 32 33 34 35 36 37 38 39 40 41 42 43 44 45 46 47 48 49 50
000
FTUS43 KMKX 221027 AAB
TAFMSN
TAF AMD
KMSN 221027Z 2210/2306 16011KT P6SM VCSH OVC010
      TEMPO 2210/2214 5SM BR
     FM221500 13011KT P6SM SCT015 OVC035
     FM222000 12011KT 3SM -RA BR OVC030
     FM222200 11011KT 3SM -RA BR OVC015
     FM230300 12009KT 2SM -RA BR OVC003=

USA.gov is the U.S. government's official web portal to all federal, state and local government web resources and services.